{"data":{"norad_id":55300,"intl_designator":"2023-010AH","name":"STARLINK-5308","alt_names":[],"object_type":"PAYLOAD","status":"ACTIVE","operator":null,"country":"US","launch_date":"2023-01-19","launch_site_code":"AFWTR","launch_vehicle":null,"mission":null,"orbit_class":"UNKNOWN","rcs_meters":null,"size_class":null,"mass_kg":null,"dimensions":null,"purposes":["comms"],"wikipedia_slug":null,"has_3d_model":false,"image_url":null,"decayed_at":null,"tle_current":{"epoch":"2026-05-25T03:09:53.142912Z","epoch_age_seconds":66935,"freshness":"FRESH","line1":"1 55300U 23010AH  26145.13186508  .00000302  00000+0  33059-4 0  9997","line2":"2 55300  70.0010 191.5511 0003890 266.7996  93.2718 14.98409888184722","mean_motion":14.98409888,"eccentricity":0.000389,"inclination_deg":70.001,"raan_deg":191.5511,"arg_perigee_deg":266.7996,"mean_anomaly_deg":93.2718,"bstar":3.3059e-5,"rev_number":18472,"period_min":96.10187516328,"perigee_km":569.10532593306,"apogee_km":574.51238380814,"semimajor_km":6949.9458548706,"source":"CELESTRAK","updated_at":"2026-05-25T13:38:17.754151Z"}}}